When you browse on this site, cookies collect data to enhance your experience and personalize the content and advertising you see.
Visit our Privacy Policy to learn more. By continuing to use the site, you agree to this use of cookies and data.
  • In Schweiz
  • Länderverzeichnis
  • Für 7 Tage
  • Wassertemperatur
  • Wetterkarte
  • Widgets
  • user-avatar
    Anmelden

    Stündliche Wetter Zavarykino

    Heute, 26 August, Montag

    Zeit Temperatur Niederschläge Wind Luftdruck Luftfeuchtigkeit
    00:00 +13°C° 0 mm 3 m/S 754 mmHg 89%
    01:00 +13°C° 0 mm 2 m/S 755 mmHg 90%
    02:00 +13°C° 0 mm 2 m/S 755 mmHg 91%
    03:00 +12°C° 0 mm 1 m/S 755 mmHg 91%
    04:00 +12°C° 0 mm 1 m/S 755 mmHg 91%
    05:00 +12°C° 0 mm 1 m/S 755 mmHg 91%
    06:00 +11°C° 0 mm 1 m/S 755 mmHg 92%
    07:00 +13°C° 0 mm 1 m/S 756 mmHg 85%
    08:00 +14°C° 0 mm 1 m/S 756 mmHg 79%
    09:00 +16°C° 0 mm 1 m/S 756 mmHg 72%
    10:00 +18°C° 0 mm 1 m/S 756 mmHg 68%
    11:00 +18°C° 0 mm 0 m/S 756 mmHg 63%
    12:00 +19°C° 0 mm 0 m/S 755 mmHg 58%
    13:00 +21°C° 0 mm 1 m/S 755 mmHg 55%
    14:00 +22°C° 0 mm 1 m/S 755 mmHg 53%
    15:00 +21°C° 0 mm 2 m/S 755 mmHg 51%
    16:00 +21°C° 0 mm 2 m/S 754 mmHg 55%
    17:00 +21°C° 0 mm 2 m/S 754 mmHg 59%
    18:00 +20°C° 0 mm 2 m/S 753 mmHg 63%
    19:00 +19°C° 0 mm 2 m/S 753 mmHg 67%
    20:00 +18°C° 0 mm 2 m/S 753 mmHg 71%
    21:00 +16°C° 0 mm 1 m/S 753 mmHg 75%
    22:00 +16°C° 0 mm 2 m/S 752 mmHg 76%
    23:00 +16°C° 0 mm 2 m/S 752 mmHg 77%

    Morgen, 27 August, Dienstag

    Zeit Temperatur Niederschläge Wind Luftdruck Luftfeuchtigkeit
    00:00 +16°C° 0 mm 3 m/S 751 mmHg 79%
    01:00 +16°C° 0 mm 3 m/S 751 mmHg 79%
    02:00 +14°C° 0 mm 3 m/S 751 mmHg 79%
    03:00 +14°C° 0 mm 4 m/S 750 mmHg 79%
    04:00 +14°C° 0 mm 4 m/S 750 mmHg 79%
    05:00 +15°C° 0 mm 4 m/S 749 mmHg 80%
    06:00 +15°C° 0 mm 4 m/S 749 mmHg 81%
    07:00 +16°C° 0 mm 5 m/S 749 mmHg 80%
    08:00 +17°C° 0 mm 5 m/S 749 mmHg 78%
    09:00 +19°C° 0 mm 5 m/S 748 mmHg 77%
    10:00 +20°C° 0.6 mm 5 m/S 748 mmHg 75%
    11:00 +20°C° 0.6 mm 5 m/S 748 mmHg 72%
    12:00 +21°C° 0.6 mm 5 m/S 748 mmHg 69%
    13:00 +21°C° 0.2 mm 6 m/S 748 mmHg 67%
    14:00 +22°C° 0.2 mm 6 m/S 748 mmHg 64%
    15:00 +22°C° 0.2 mm 6 m/S 748 mmHg 61%
    16:00 +22°C° 0 mm 5 m/S 748 mmHg 63%
    17:00 +21°C° 0 mm 4 m/S 748 mmHg 65%
    18:00 +20°C° 0 mm 3 m/S 748 mmHg 66%
    19:00 +19°C° 0 mm 3 m/S 748 mmHg 69%
    20:00 +18°C° 0 mm 4 m/S 748 mmHg 72%
    21:00 +15°C° 0 mm 4 m/S 749 mmHg 75%
    22:00 +14°C° 0 mm 3 m/S 749 mmHg 79%
    23:00 +13°C° 0 mm 3 m/S 749 mmHg 82%

    übermorgen, 28 August, Mittwoch

    Zeit Temperatur Niederschläge Wind Luftdruck Luftfeuchtigkeit
    00:00 +12°C° 0 mm 3 m/S 750 mmHg 85%
    01:00 +12°C° 0 mm 3 m/S 750 mmHg 86%
    02:00 +11°C° 0 mm 3 m/S 750 mmHg 86%
    03:00 +11°C° 0 mm 3 m/S 750 mmHg 86%
    04:00 +10°C° 0 mm 4 m/S 750 mmHg 87%
    05:00 +10°C° 0 mm 4 m/S 751 mmHg 88%
    06:00 +8°C° 0 mm 4 m/S 751 mmHg 89%
    07:00 +10°C° 0 mm 4 m/S 751 mmHg 81%
    08:00 +10°C° 0 mm 5 m/S 751 mmHg 73%
    09:00 +12°C° 0 mm 5 m/S 752 mmHg 65%
    10:00 +13°C° 0 mm 6 m/S 752 mmHg 62%
    11:00 +14°C° 0 mm 6 m/S 752 mmHg 59%
    12:00 +15°C° 0 mm 6 m/S 752 mmHg 55%
    13:00 +15°C° 0 mm 6 m/S 752 mmHg 53%
    14:00 +15°C° 0 mm 6 m/S 752 mmHg 51%
    15:00 +16°C° 0 mm 6 m/S 752 mmHg 49%
    16:00 +15°C° 0 mm 6 m/S 752 mmHg 52%
    17:00 +14°C° 0 mm 5 m/S 752 mmHg 55%
    18:00 +14°C° 0 mm 4 m/S 752 mmHg 58%
    19:00 +12°C° 0 mm 4 m/S 753 mmHg 62%
    20:00 +11°C° 0 mm 3 m/S 753 mmHg 67%
    21:00 +10°C° 0 mm 3 m/S 753 mmHg 71%
    22:00 +9°C° 0 mm 3 m/S 753 mmHg 74%
    23:00 +9°C° 0 mm 2 m/S 754 mmHg 76%

    29 August, Donnerstag

    Zeit Temperatur Niederschläge Wind Luftdruck Luftfeuchtigkeit
    00:00 +8°C° 0 mm 2 m/S 754 mmHg 79%
    01:00 +8°C° 0 mm 2 m/S 754 mmHg 81%
    02:00 +8°C° 0 mm 2 m/S 754 mmHg 83%
    03:00 +7°C° 0 mm 2 m/S 754 mmHg 85%
    04:00 +7°C° 0 mm 2 m/S 754 mmHg 86%
    05:00 +7°C° 0 mm 2 m/S 755 mmHg 87%
    06:00 +7°C° 0 mm 2 m/S 755 mmHg 89%
    07:00 +8°C° 0 mm 2 m/S 755 mmHg 81%
    08:00 +10°C° 0 mm 2 m/S 755 mmHg 74%
    09:00 +12°C° 0 mm 3 m/S 755 mmHg 67%
    10:00 +13°C° 0 mm 3 m/S 754 mmHg 61%
    11:00 +14°C° 0 mm 3 m/S 754 mmHg 55%
    12:00 +17°C° 0 mm 3 m/S 754 mmHg 49%
    13:00 +17°C° 0 mm 3 m/S 754 mmHg 50%
    14:00 +18°C° 0 mm 3 m/S 754 mmHg 51%
    15:00 +18°C° 0 mm 3 m/S 753 mmHg 51%
    16:00 +18°C° 0 mm 2 m/S 753 mmHg 56%
    17:00 +18°C° 0 mm 2 m/S 753 mmHg 61%
    18:00 +17°C° 0 mm 2 m/S 753 mmHg 67%
    19:00 +16°C° 0 mm 2 m/S 752 mmHg 71%
    20:00 +15°C° 0 mm 2 m/S 752 mmHg 75%
    21:00 +14°C° 0 mm 2 m/S 752 mmHg 80%
    22:00 +14°C° 0 mm 2 m/S 752 mmHg 81%
    23:00 +13°C° 0 mm 2 m/S 752 mmHg 83%

    30 August, Freitag

    Zeit Temperatur Niederschläge Wind Luftdruck Luftfeuchtigkeit
    00:00 +12°C° 0 mm 3 m/S 752 mmHg 84%
    01:00 +12°C° 0 mm 3 m/S 751 mmHg 85%
    02:00 +11°C° 0 mm 3 m/S 751 mmHg 85%
    03:00 +11°C° 0 mm 3 m/S 751 mmHg 86%
    04:00 +11°C° 0 mm 3 m/S 751 mmHg 87%
    05:00 +11°C° 0 mm 3 m/S 750 mmHg 88%
    06:00 +11°C° 0 mm 4 m/S 750 mmHg 89%
    07:00 +12°C° 0 mm 4 m/S 750 mmHg 82%
    08:00 +14°C° 0 mm 5 m/S 750 mmHg 76%
    09:00 +16°C° 0 mm 5 m/S 750 mmHg 70%
    10:00 +17°C° 0 mm 5 m/S 750 mmHg 66%
    11:00 +20°C° 0 mm 5 m/S 750 mmHg 63%
    12:00 +21°C° 0 mm 6 m/S 750 mmHg 59%
    13:00 +21°C° 0.1 mm 5 m/S 750 mmHg 60%
    14:00 +21°C° 0.1 mm 5 m/S 750 mmHg 62%
    15:00 +21°C° 0.1 mm 5 m/S 750 mmHg 63%
    16:00 +20°C° 0.3 mm 4 m/S 750 mmHg 68%
    17:00 +19°C° 0.3 mm 4 m/S 750 mmHg 73%
    18:00 +18°C° 0.3 mm 3 m/S 750 mmHg 78%
    19:00 +17°C° 0 mm 3 m/S 750 mmHg 82%
    20:00 +15°C° 0 mm 2 m/S 750 mmHg 85%
    21:00 +14°C° 0 mm 2 m/S 751 mmHg 88%
    22:00 +13°C° 0 mm 2 m/S 751 mmHg 86%
    23:00 +13°C° 0 mm 2 m/S 751 mmHg 84%

    31 August, Samstag

    Zeit Temperatur Niederschläge Wind Luftdruck Luftfeuchtigkeit
    00:00 +12°C° 0 mm 2 m/S 751 mmHg 82%
    01:00 +12°C° 0 mm 2 m/S 751 mmHg 82%
    02:00 +10°C° 0 mm 2 m/S 751 mmHg 82%
    03:00 +10°C° 0 mm 2 m/S 751 mmHg 82%
    04:00 +10°C° 0 mm 2 m/S 751 mmHg 84%
    05:00 +10°C° 0 mm 2 m/S 751 mmHg 85%
    06:00 +10°C° 0 mm 2 m/S 751 mmHg 86%
    07:00 +13°C° 0 mm 2 m/S 751 mmHg 84%
    08:00 +15°C° 0 mm 2 m/S 751 mmHg 81%
    09:00 +16°C° 0 mm 2 m/S 750 mmHg 78%
    10:00 +18°C° 0 mm 2 m/S 750 mmHg 73%
    11:00 +19°C° 0 mm 2 m/S 750 mmHg 68%
    12:00 +21°C° 0 mm 2 m/S 750 mmHg 62%
    13:00 +23°C° 0 mm 2 m/S 750 mmHg 59%
    14:00 +22°C° 0 mm 3 m/S 749 mmHg 55%
    15:00 +24°C° 0 mm 3 m/S 749 mmHg 52%
    16:00 +22°C° 0 mm 3 m/S 749 mmHg 56%
    17:00 +22°C° 0 mm 3 m/S 749 mmHg 61%
    18:00 +21°C° 0 mm 2 m/S 748 mmHg 66%
    19:00 +20°C° 0 mm 2 m/S 748 mmHg 70%
    20:00 +18°C° 0 mm 2 m/S 748 mmHg 74%
    21:00 +17°C° 0 mm 2 m/S 748 mmHg 78%
    22:00 +16°C° 0 mm 2 m/S 748 mmHg 78%
    23:00 +15°C° 0 mm 2 m/S 748 mmHg 78%
    Mehr zeigen